DELTA 1 DEB, 21680

Orbit data source: Space-Track

DELTA 1 DEB, 21680 is space debris in SSO originally from a launch on Thu, 12 Jun 1975 UTC launched from the Air Force Western Test Range (AFWTR). Debris objects in space refer to the collection of defunct objects orbiting the Earth. Examples of debris include non-operational satellites, rocket bodies, and fragments generated from explosions, collisions, or faulty payload assembly.

Loading next visibility...
Identifier
21680, 1975-052JG
Orbit
SSO
Country
Flag of USUS
Related business
Manufacturer
Unknown
Mission
Spacecraft
Bus & Motor
Unknown
Mass
Unknown
Launch date (UTC)
1975-06-12 (51 years ago)
Launch vehicle
Unknown
Launch site
Air Force Western Test Range (AFWTR)
Object type
Payload
Rocket body
Debris
Shape & HBR
Unknown shape, 0.1 m
Radar Cross Section
Medium (>0.1 m² and <1 m²)

Expand to show TLE details & history
Last TLE update: 3 weeks ago

TLE from 3 weeks ago
0 DELTA 1 DEB
1 21680U 75052JG  26151.83860466  .00000074  00000-0  40042-3 0  9996
2 21680  99.5960 287.6795 0379433 336.6735 182.3955 12.72741307621021
Epoch: 2026-05-31T20:07Z
TLE epoch observation values (Epoch: 2026-05-31T20:07:35.442Z)
Latitude
20.80142°
Longitude
-79.8878°
Altitude
1,666.988 km
Speed
6.907 km/s
True Right ascension
07h 25m 22s
True Declination
20° 42' 01"
Sunlit
Object was in daylight at epoch
Visualization orbit readout
Latitude
Unknown
Longitude
Unknown
Altitude
Unknown
Speed
Unknown
Apparent Right ascension
Unknown
Apparent Declination
Unknown
Sunlit
N/A
Visualization observer readout
Local Sidereal Time
03:33:46
Azimuth
Unknown
Elevation
Unknown
Doppler factor
Unknown
Orbital elements
Apogee altitude
1,662.109 km
Perigee altitude
1,074.267 km
Semi-major axis
7,746.325 km
Eccentricity
0.03794
Inclination
99.596°
RAAN
287.6795°
Arg. of periapsis
336.6735°
True anomaly
182.222°
Mean anomaly
182.3955°
Eccentric anomaly
182.30795°
Mean motion
3.18346 °/min
Orbital period
113.08 mins
BSTAR
0.00040042
Loading maneuver chart data...
Computing Atmospheric mass density...

Documentation

Showing up to 5 results
|